Wind_Speed
38 38 37 37 37 36 36 35 35 34 34 33 33 33 33 32 31 31 31 31 30 29 28 28 27 26 24 23 22 22 22 22 23 23 24 24 24 23 24 24 24 24 24 24 24 24 24 23 23 23 23 24 24 24 25 26 26 26 26 26 26 26 27 27 27 27 28 29 30 30 30 29 27 26 26 27 28 29 30 30 29 26 25 25 26 26 27
34 37 39 40 40 39 38 38 38 37 37 36 36 36 36 35 34 34 34 34 33 32 31 29 29 28 27 26 25 25 25 25 24 24 25 26 26 26 26 27 26 26 26 26 26 27 27 26 27 27 27 28 28 28 28 28 28 29 29 29 30 30 30 30 30 31 31 32 33 35 36 35 34 33 32 32 32 33 33 33 32 30 27 26 28 27 26
27 29 32 35 36 36 36 38 40 40 41 40 40 40 39 39 38 37 36 36 36 36 35 33 32 31 30 29 28 28 28 28 27 27 27 28 29 30 30 30 30 30 30 30 30 30 31 31 31 32 33 33 33 33 32 32 32 32 32 33 33 33 34 34 34 34 35 35 36 37 38 39 39 38 37 36 35 35 34 34 34 33 31 29 29 29 28
29 27 26 26 27 28 29 31 34 37 40 42 42 42 42 41 40 39 38 38 39 39 39 38 37 35 33 32 31 31 31 32 32 31 31 31 32 32 33 33 33 33 33 33 34 35 35 36 37 37 37 38 37 37 36 35 36 36 37 37 37 37 38 38 38 38 38 39 39 40 40 41 42 42 41 40 39 37 36 36 36 35 35 33 32 32 31
33 32 31 28 27 26 26 26 27 29 32 36 38 39 41 42 42 42 41 40 41 42 41 41 40 38 36 34 34 33 33 33 34 34 33 33 33 33 33 34 35 35 36 36 37 38 39 40 40 41 41 42 41 40 40 39 40 40 41 41 40 41 41 41 40 40 40 41 42 43 43 43 44 44 43 43 43 41 39 38 38 37 37 36 36 35 34
32 33 33 32 31 30 28 26 26 26 27 28 30 31 32 34 36 38 40 40 41 42 43 42 41 39 37 35 35 35 35 35 35 35 35 35 34 34 35 36 37 39 40 41 42 42 43 44 44 45 45 45 44 44 44 43 44 44 44 44 44 44 43 42 42 42 42 42 43 43 44 44 44 44 44 44 44 44 42 41 40 39 39 38 38 38 37
30 31 32 33 33 31 29 28 29 29 29 30 30 29 29 28 29 30 31 33 34 37 38 39 38 37 35 35 35 35 35 35 36 37 37 37 37 39 40 41 42 44 44 45 44 44 44 45 46 47 47 48 48 48 47 47 47 47 46 46 46 46 45 45 45 44 43 42 41 41 42 42 43 44 44 45 45 44 43 42 42 41 41 40 40 39 39
32 32 31 31 32 31 31 31 31 31 32 32 32 32 31 30 30 30 30 30 30 32 33 34 35 35 34 34 35 36 37 38 39 40 41 42 43 44 45 46 47 47 48 48 48 47 47 48 49 51 51 52 52 52 51 51 50 49 49 49 48 48 47 47 48 47 46 45 44 43 43 43 43 43 44 45 45 45 44 43 43 42 42 42 41 41 41
34 33 32 30 29 30 31 31 31 31 31 32 32 32 32 32 32 33 33 33 32 33 33 34 35 36 37 37 38 39 41 42 43 45 45 46 47 47 48 49 49 50 51 52 52 53 53 54 55 56 56 56 56 55 55 54 53 52 51 51 51 51 50 50 50 50 49 49 48 48 46 45 44 44 44 45 46 45 44 44 44 43 43 43 44 43 43
34 34 35 34 33 32 31 31 32 32 32 33 34 34 34 34 34 34 33 33 34 34 35 36 37 38 40 41 42 43 44 45 46 46 47 48 48 49 50 51 51 52 53 54 55 56 57 58 58 59 59 59 59 58 58 57 57 56 56 55 55 55 54 53 51 50 50 49 50 49 48 46 44 43 43 43 44 44 43 43 43 43 43 44 45 45 45
36 37 38 38 38 37 36 36 36 35 35 35 35 36 36 36 36 36 35 34 34 33 34 35 36 37 39 41 43 44 45 45 46 47 48 49 50 51 52 53 54 55 56 57 58 59 60 61 61 61 61 62 62 62 61 61 61 60 60 59 58 57 56 55 53 52 51 50 49 49 49 47 44 43 42 41 41 41 40 40 41 42 42 43 44 45 46
37 38 39 39 39 40 39 37 36 35 35 35 36 37 37 35 35 35 35 35 34 34 34 34 35 36 38 40 42 44 45 46 48 49 50 51 52 52 53 54 56 57 58 59 60 61 62 63 63 64 64 64 65 65 65 65 64 64 63 62 61 59 57 56 56 55 54 53 51 50 50 49 47 46 44 43 42 42 41 41 40 41 41 42 42 43 43
33 34 35 35 36 38 38 37 36 36 36 36 37 37 36 35 35 35 36 36 36 36 36 36 36 37 38 40 42 43 45 46 48 49 51 52 53 54 55 56 57 58 59 60 61 63 64 65 65 66 66 66 66 67 67 66 66 65 64 63 62 60 59 58 57 56 56 55 54 53 53 52 51 51 48 45 43 43 42 42 42 41 41 41 41 40 41
36 36 36 36 37 39 39 39 39 39 39 39 39 37 37 37 37 37 38 38 39 39 39 40 40 41 42 42 43 44 46 47 49 50 51 52 54 55 56 57 58 59 60 61 62 63 64 65 65 66 66 66 66 66 66 66 66 66 65 63 62 61 60 59 59 58 56 56 55 55 55 55 55 55 54 51 47 44 42 41 40 39 40 40 40 40 41
43 44 44 44 43 43 42 42 42 42 42 42 40 39 39 39 39 39 40 40 40 41 42 42 43 44 44 45 46 47 48 49 50 51 52 53 55 55 56 57 57 58 59 60 61 62 63 64 65 65 66 66 66 66 66 66 66 66 65 65 64 63 62 61 60 59 58 57 56 55 55 56 56 57 57 57 56 53 50 48 45 43 40 39 40 40 41
44 45 46 46 46 45 45 44 44 44 44 43 43 43 42 42 42 42 42 43 43 44 44 45 46 46 47 48 49 49 50 51 52 53 53 54 55 55 55 55 56 56 57 57 58 59 60 61 63 64 66 66 66 66 66 66 67 67 67 66 66 65 64 63 62 61 59 59 58 57 56 56 56 57 58 58 58 57 56 55 54 51 48 46 45 45 45
42 43 43 43 43 43 44 44 44 44 44 43 43 43 43 44 44 44 44 45 45 45 46 46 47 47 48 49 50 50 51 52 52 52 53 53 53 53 53 53 53 53 53 54 54 55 56 58 60 62 64 65 65 64 64 64 65 65 65 64 64 64 63 62 61 61 60 59 58 58 57 57 56 56 56 56 56 55 53 52 52 52 51 51 50 49 48
39 40 41 40 40 41 41 42 42 42 42 42 42 43 43 43 43 43 44 44 44 44 45 45 45 46 46 47 48 49 49 50 50 50 50 50 50 50 50 51 52 53 53 54 55 56 58 60 61 62 63 63 64 63 64 64 64 64 64 64 63 63 62 62 61 60 59 58 57 57 57 57 57 57 56 54 53 50 48 49 51 51 51 51 51 50 49
35 36 37 38 38 39 39 40 39 39 40 40 40 40 40 40 40 41 41 41 41 41 41 42 42 43 43 44 45 46 47 48 48 49 49 49 50 50 51 53 54 56 57 58 59 60 61 62 62 62 63 63 63 64 64 65 66 66 66 66 65 65 65 65 64 63 62 60 59 58 58 57 57 58 58 56 52 49 49 51 52 52 51 52 51 50 48
32 33 34 35 35 36 37 37 37 37 37 36 36 36 35 35 36 37 38 38 39 39 39 40 41 41 42 43 44 45 47 48 49 50 50 51 52 53 56 58 60 61 62 62 62 62 61 61 61 61 62 62 63 63 64 64 65 66 67 67 67 67 67 67 67 67 66 65 63 62 61 60 59 59 59 59 57 55 55 56 55 53 51 50 47 44 44
28 29 30 30 31 32 33 33 34 35 35 36 36 35 34 33 33 34 35 36 37 38 39 40 41 42 44 45 46 47 48 49 50 51 52 54 56 58 60 62 63 63 63 62 61 61 60 60 59 60 60 61 62 63 63 64 64 65 65 66 66 66 66 67 67 67 67 67 67 66 64 63 61 61 60 60 60 60 59 57 56 55 54 52 49 46 45
24 25 26 27 28 29 30 30 31 32 33 34 35 37 37 38 38 38 39 39 40 41 42 44 45 46 47 48 49 50 52 53 54 55 56 58 59 60 60 60 59 59 59 58 58 58 58 58 58 59 60 60 61 62 63 64 65 65 66 66 67 67 67 67 67 67 68 67 67 67 66 65 63 61 60 60 61 61 61 58 56 56 57 56 56 55 54
19 20 21 22 23 24 25 25 26 27 28 29 30 32 34 36 38 40 41 43 44 45 46 47 48 49 50 51 51 52 53 54 54 54 55 55 55 55 55 54 54 55 55 55 54 55 55 55 55 54 55 55 56 56 56 57 59 60 61 63 64 65 66 67 68 68 69 69 68 68 68 67 65 63 62 61 59 59 60 60 60 59 58 57 58 60 61
16 17 17 18 19 20 21 21 22 23 24 25 26 27 28 30 32 33 35 37 39 40 42 43 43 44 45 45 46 46 47 47 48 48 49 49 49 49 49 50 50 50 49 48 46 45 44 43 42 42 42 42 42 42 42 43 44 46 49 51 53 55 58 60 62 65 67 68 69 69 69 68 68 66 64 62 59 57 56 57 59 60 60 60 60 60 61
16 16 17 18 19 19 20 21 22 22 23 24 25 26 27 28 30 31 32 33 34 36 37 38 39 39 40 40 40 41 41 42 43 43 44 44 44 44 44 44 43 40 38 35 33 32 31 31 31 30 31 32 32 32 33 34 35 36 38 40 43 45 48 50 52 54 57 61 64 65 67 68 68 67 66 63 61 57 52 48 50 52 54 56 56 55 56
17 17 18 19 19 20 20 21 21 22 22 23 25 25 26 28 29 30 30 31 32 33 34 35 36 36 36 37 37 37 38 39 39 39 38 38 37 37 36 34 32 29 27 26 25 25 26 26 26 26 27 28 29 29 30 30 31 31 32 33 34 36 39 44 47 48 48 50 53 56 60 62 64 65 65 63 61 58 53 48 47 47 47 48 49 48 48
17 17 18 18 19 19 19 20 20 20 21 23 24 24 25 26 27 28 29 30 31 32 32 33 34 34 34 34 34 34 35 34 33 31 30 29 29 28 26 25 23 22 22 22 22 22 22 22 23 24 24 25 25 26 28 28 28 29 31 31 31 30 32 35 41 45 45 43 44 47 51 53 55 58 60 60 60 58 56 54 54 53 51 50 48 45 43
16 16 16 17 17 17 17 18 18 20 21 22 22 23 24 25 26 27 28 29 30 30 31 31 32 31 30 29 29 28 27 25 23 21 20 20 21 20 19 18 18 18 17 17 17 18 19 20 22 23 23 22 22 22 23 23 23 24 25 27 28 29 29 29 32 38 42 42 40 41 43 45 47 49 51 54 55 55 55 56 57 58 58 56 53 48 42
15 15 16 16 16 16 16 17 18 20 21 21 22 23 23 24 25 26 27 28 28 29 29 29 27 25 23 22 21 20 17 14 13 13 14 15 16 15 13 13 13 13 13 14 15 17 19 21 22 22 20 17 16 15 16 17 19 21 23 24 26 27 29 28 28 30 35 38 38 37 38 40 41 42 43 45 48 50 51 53 54 55 56 55 55 52 47
15 15 15 16 16 16 17 17 19 20 21 21 21 22 22 23 24 25 26 27 27 26 24 22 18 16 15 15 13 11 9 7 7 9 11 13 13 12 11 12 13 13 13 15 17 19 20 20 20 18 14 11 10 12 15 19 22 24 25 26 27 27 29 29 27 25 28 32 35 34 34 35 36 36 36 37 39 41 44 46 49 50 51 50 49 50 51
15 15 16 16 16 17 17 18 19 20 20 20 21 21 22 23 24 24 24 24 22 20 17 14 12 11 10 10 8 6 5 5 6 9 13 15 14 13 13 14 14 15 15 16 18 19 17 16 16 14 10 9 10 14 18 21 24 25 26 27 27 27 26 27 27 24 23 26 30 30 29 30 31 30 29 30 31 33 35 38 41 44 46 48 48 48 51
16 16 16 17 17 18 18 18 19 19 20 20 20 21 22 22 23 22 21 19 17 14 11 10 9 9 9 8 6 5 4 4 7 11 14 14 14 14 14 15 15 14 14 15 17 15 12 13 15 13 11 10 12 14 18 21 23 24 27 28 27 24 21 21 22 21 19 21 25 27 26 25 26 26 25 25 25 27 29 32 34 37 40 43 46 49 50
16 16 17 17 18 18 17 18 18 19 19 19 20 20 21 21 20 18 16 14 12 10 9 9 10 10 10 9 7 5 4 4 7 11 12 11 11 12 13 14 14 14 13 14 14 12 10 12 15 14 12 11 11 13 17 21 21 23 26 30 29 23 16 15 15 15 15 17 21 24 24 23 23 24 24 24 23 24 26 27 29 32 35 37 40 42 41
16 17 17 18 18 17 17 17 18 18 18 18 19 19 19 18 16 14 12 11 10 9 9 10 10 12 12 10 8 6 5 5 7 9 8 7 8 9 10 10 11 11 11 12 12 11 10 11 14 15 13 11 11 13 17 20 21 21 25 30 30 24 14 11 11 11 12 14 17 22 23 23 24 25 24 24 24 24 25 25 25 26 28 29 31 31 28
17 18 18 18 18 17 17 17 17 17 17 17 17 17 16 14 13 11 11 11 10 9 9 10 12 13 14 12 9 7 5 5 6 5 3 4 6 7 7 8 9 9 9 9 10 11 11 11 13 14 13 12 12 13 16 19 20 20 22 26 30 28 17 8 6 7 9 10 14 18 21 23 24 25 25 25 24 23 23 23 22 21 23 24 27 30 29
17 18 19 18 17 17 17 17 17 17 17 16 16 15 13 12 11 11 10 11 11 9 9 10 12 13 13 12 10 8 7 5 4 2 1 3 5 6 7 9 11 11 11 10 10 13 14 13 12 12 12 12 13 14 15 16 18 19 20 23 28 30 26 16 7 2 4 5 8 13 17 19 21 22 23 22 22 21 21 20 19 20 21 23 28 32 32
17 18 18 18 17 17 17 16 16 16 16 15 15 13 12 11 11 11 11 11 11 10 10 11 12 12 11 11 11 10 7 5 3 3 3 3 4 5 7 10 11 12 13 13 14 16 16 15 14 12 11 11 12 13 14 15 15 17 19 20 23 28 29 26 19 10 3 3 6 9 12 15 17 18 19 18 19 19 19 20 22 24 22 20 23 27 27
17 17 18 18 17 17 16 16 15 15 15 15 13 12 11 12 12 12 11 11 10 10 10 10 10 10 10 11 12 11 9 6 4 4 5 6 6 5 6 9 10 12 13 14 15 16 16 16 15 14 11 11 11 12 13 14 15 16 17 19 20 23 26 27 27 22 15 8 5 7 9 11 12 13 14 16 17 17 19 23 29 27 20 15 17 21 24
17 17 17 17 17 16 15 15 14 14 14 14 13 12 12 13 13 13 13 12 10 9 9 9 9 8 9 12 13 12 10 8 6 5 6 7 8 9 8 8 9 11 12 13 13 14 15 15 15 14 13 13 13 13 13 13 14 14 15 17 18 20 21 23 25 26 24 20 14 10 7 7 9 10 12 14 16 19 23 27 28 24 21 19 18 20 24
17 16 16 17 17 16 14 14 14 14 14 13 12 12 13 14 14 14 14 13 11 9 9 8 8 8 9 12 13 12 11 10 8 7 7 7 8 9 10 10 9 10 11 11 11 11 12 13 14 14 15 15 15 15 15 14 14 14 14 15 16 17 18 19 20 21 22 22 21 18 16 14 14 16 17 19 20 21 21 20 18 17 19 20 19 20 23
16 16 16 16 16 15 14 14 13 13 13 13 13 13 14 14 14 14 14 13 12 10 9 8 9 9 11 13 13 13 12 12 11 10 10 9 9 9 9 9 10 10 10 10 10 10 11 11 12 14 15 15 16 16 16 16 16 16 15 15 15 15 16 17 18 18 18 19 18 17 17 17 18 18 19 19 19 18 15 14 13 14 15 17 17 17 19
15 15 15 16 16 15 14 14 13 13 13 13 13 13 14 15 15 14 14 13 12 10 9 9 10 12 13 14 15 14 14 14 13 12 12 12 11 9 9 9 9 10 9 9 9 9 10 10 10 11 13 14 15 16 17 17 18 17 17 16 15 14 14 15 15 15 15 16 16 15 14 13 13 13 14 15 16 16 15 15 15 14 14 15 16 16 17
16 15 15 16 15 15 15 14 14 14 14 13 13 14 14 15 15 15 14 13 12 10 9 9 10 11 13 14 15 15 15 14 14 13 13 12 10 9 8 9 9 9 9 8 7 7 8 9 9 9 10 11 12 13 15 16 17 18 18 18 17 16 15 14 14 14 13 13 13 12 11 10 10 10 10 11 12 12 13 13 12 11 11 11 12 12 13
16 16 16 16 16 15 15 15 15 15 14 14 14 14 14 15 15 15 15 14 13 11 9 9 9 9 10 11 12 13 13 12 12 12 11 9 8 7 7 8 8 8 7 7 6 6 6 7 8 8 8 9 9 10 12 13 14 16 17 18 18 18 17 16 14 13 12 12 11 10 9 8 8 8 8 8 8 8 7 7 6 6 7 7 8 8 9
18 17 17 17 17 16 16 15 15 15 15 15 16 16 15 15 16 16 15 15 14 12 10 9 8 8 8 9 10 10 11 10 10 10 9 8 7 7 8 8 7 7 6 6 6 6 7 7 8 8 8 8 8 9 9 10 11 12 13 14 16 17 17 17 16 14 12 11 10 9 8 7 6 6 6 6 5 4 3 3 3 4 5 6 8 9 10
19 18 17 18 18 17 17 16 15 15 15 16 17 17 17 17 17 16 16 16 15 13 12 10 9 9 8 9 9 9 9 9 9 9 9 9 8 8 8 8 8 7 7 6 6 6 6 7 7 8 8 8 8 8 9 9 9 9 10 11 11 12 13 15 16 16 15 13 12 9 8 6 5 4 3 2 2 2 2 3 4 6 7 8 9 10 12
20 19 18 19 18 18 17 17 16 16 16 17 18 19 19 19 18 18 18 17 16 15 14 12 11 10 10 10 10 10 10 11 11 11 11 10 10 10 10 9 9 9 8 7 7 6 6 6 6 7 7 7 7 7 8 8 9 9 9 8 9 9 10 11 12 13 14 14 14 13 11 9 7 5 3 2 3 4 5 6 7 9 9 10 10 11 13
21 20 19 19 18 18 18 18 17 17 18 18 19 20 20 20 21 20 20 19 18 17 16 15 13 12 12 12 13 13 13 13 14 13 13 13 12 12 11 10 10 10 9 8 8 7 7 6 6 6 7 7 7 7 7 7 8 8 9 8 8 8 8 8 8 9 10 10 11 11 11 11 10 9 7 5 3 3 4 5 7 8 9 9 10 11 13
22 21 20 18 18 18 19 18 18 19 19 20 20 20 21 22 22 23 22 22 21 20 19 18 17 16 15 15 15 16 16 16 16 16 15 15 14 13 12 12 12 11 11 10 9 9 8 8 7 7 7 7 7 7 7 7 8 8 8 8 9 8 8 8 8 7 7 7 7 7 8 8 8 8 8 7 6 5 3 2 3 4 6 7 9 10 12
21 21 21 20 19 18 19 19 19 20 20 20 20 20 21 22 24 25 25 25 24 23 22 21 20 19 18 18 18 18 18 18 18 18 17 16 16 15 14 14 14 13 13 12 11 11 10 10 10 9 9 9 8 8 8 8 8 8 8 8 8 8 8 8 8 8 8 7 7 6 6 6 5 5 5 4 4 3 3 2 2 3 4 6 8 10 12
20 20 21 21 20 19 19 19 19 20 21 21 21 20 20 22 25 27 27 27 26 26 25 24 23 23 22 21 20 20 20 20 20 20 20 19 19 18 18 17 16 16 15 14 13 13 12 12 11 11 11 10 10 10 10 10 10 9 9 9 8 8 9 9 9 9 9 8 8 8 7 7 6 6 5 4 3 2 2 2 2 3 5 6 8 10 11
19 19 19 20 21 20 20 19 20 21 21 21 21 21 21 22 25 27 28 28 29 29 28 27 26 26 25 24 24 23 23 23 23 23 22 22 21 21 21 20 19 18 17 16 15 14 14 13 13 12 12 12 12 12 12 12 11 11 11 11 10 10 10 10 10 10 10 10 10 10 9 9 9 9 9 8 8 7 7 7 7 7 8 9 10 11 13
Wind_Direction
241 237 238 239 239 238 239 239 239 238 238 238 238 239 240 241 242 243 245 246 247 245 244 243 244 246 248 250 249 246 243 243 244 245 245 245 247 250 253 255 256 257 258 258 257 257 257 256 255 254 254 255 255 254 253 253 254 255 258 261 263 266 268 269 270 270 267 263 261 263 268 271 272 270 268 267 268 269 272 275 276 277 276 276 275 275 278
247 241 239 240 240 240 241 242 242 241 241 241 240 240 239 239 240 243 246 248 248 247 245 243 243 244 246 247 248 248 248 248 248 249 248 249 251 255 257 259 260 260 260 260 260 260 261 260 260 259 259 259 258 258 257 257 257 258 259 262 264 266 267 267 268 269 268 267 266 266 267 270 272 273 271 270 269 269 269 270 272 272 269 268 268 270 276
252 248 244 243 242 243 244 245 246 245 242 241 241 241 241 241 240 241 245 248 249 250 248 246 243 242 244 246 247 248 249 251 253 254 253 253 254 257 259 259 260 260 260 260 260 261 261 262 263 263 263 262 261 261 262 262 262 262 263 264 266 267 268 268 268 268 268 267 266 265 266 268 270 272 272 271 270 269 267 266 268 269 267 264 262 262 265
255 255 253 250 248 247 247 249 251 251 247 243 241 241 242 242 241 242 244 246 248 248 248 247 245 243 242 243 246 248 251 253 255 256 256 255 256 257 259 260 260 259 258 259 260 261 262 263 263 263 264 264 264 265 265 266 266 266 266 267 267 268 269 269 269 269 268 267 265 264 263 264 266 268 269 269 269 267 266 265 265 265 265 263 261 258 259
257 258 258 257 254 250 248 248 250 253 252 248 244 242 243 244 245 246 246 246 247 247 246 244 243 241 240 241 244 248 251 254 256 258 258 259 259 260 261 260 260 259 259 260 261 261 262 263 264 264 265 266 267 267 268 268 269 270 270 270 271 271 271 271 271 271 270 269 266 264 262 262 262 264 265 265 266 265 265 263 262 262 261 260 259 257 257
256 257 257 258 256 253 251 250 248 249 249 248 245 244 243 243 244 245 246 246 246 244 242 239 238 238 239 240 243 246 249 252 255 257 258 259 258 257 257 257 258 260 261 263 264 264 265 265 265 266 266 267 268 269 270 270 271 272 272 273 273 273 273 273 272 273 272 270 267 264 263 262 262 262 263 263 263 264 263 262 261 261 260 259 258 256 254
257 255 253 253 254 255 254 252 250 250 250 249 249 250 249 249 248 247 248 248 246 244 241 239 238 238 240 242 245 247 250 251 252 253 253 253 253 253 255 257 259 261 263 265 266 267 267 267 267 267 267 268 270 270 271 272 272 273 273 273 274 273 272 272 273 273 272 269 266 264 264 264 263 263 263 263 263 263 262 261 260 261 260 259 257 256 254
262 260 257 255 255 255 255 254 253 253 253 253 254 254 255 257 257 256 255 254 252 250 249 247 246 246 245 246 247 248 248 249 249 250 251 252 254 255 257 259 260 262 263 264 264 264 264 265 266 268 268 270 270 271 271 272 272 272 272 272 272 271 271 272 272 272 270 267 264 264 265 265 264 263 263 262 262 261 260 260 259 259 258 257 256 255 254
266 266 265 262 258 255 254 254 253 253 255 257 258 259 260 260 260 260 259 257 256 254 252 252 251 250 248 248 247 247 248 250 251 252 254 255 257 258 258 259 261 262 263 263 264 264 265 266 267 268 269 270 270 270 271 271 271 271 271 271 271 271 271 271 270 270 268 266 265 265 264 263 262 263 262 261 260 259 258 258 258 257 255 254 254 254 254
262 264 264 264 263 260 257 256 256 255 257 258 260 262 264 264 264 265 263 261 259 257 255 253 251 250 249 248 248 249 250 252 252 254 255 257 258 259 260 261 262 263 264 265 265 266 267 267 268 269 269 270 270 270 270 270 270 270 270 270 270 270 270 270 269 267 265 265 265 264 262 261 261 261 260 259 259 258 257 256 256 255 255 254 253 253 254
256 258 261 262 264 263 261 260 260 259 260 260 260 260 261 262 266 268 268 266 263 260 257 254 252 250 249 249 250 250 251 252 253 254 255 257 258 259 260 261 262 263 264 265 265 266 267 267 268 269 269 270 271 271 271 271 271 271 270 270 270 269 269 268 267 266 266 265 264 262 260 259 258 257 258 259 259 259 258 257 256 256 255 255 254 254 255
256 257 259 259 261 262 261 261 261 260 260 260 259 260 261 262 263 264 264 264 263 261 259 256 253 251 249 250 250 251 251 252 253 254 254 255 257 258 259 260 261 262 263 264 265 265 266 267 268 268 269 270 270 271 271 271 271 271 271 270 270 269 268 267 266 266 266 266 263 261 260 258 255 254 256 258 259 259 259 257 256 256 255 255 255 256 256
254 252 252 253 256 258 259 260 260 259 260 260 261 263 264 263 261 260 259 259 260 260 260 258 256 254 253 252 252 251 252 252 253 254 255 256 256 257 258 259 260 261 262 263 264 265 265 266 267 267 268 269 269 270 270 271 271 271 270 270 270 269 268 267 266 265 265 264 263 261 259 258 255 254 256 258 259 259 259 257 255 254 254 255 256 256 256
249 248 249 251 254 255 257 259 261 261 262 263 264 264 263 262 260 259 258 258 259 259 259 259 258 258 258 257 257 256 256 256 256 257 257 257 258 258 259 259 260 261 262 263 264 264 265 265 266 266 267 267 268 268 269 269 270 270 270 269 269 269 268 268 267 266 264 263 262 261 259 258 256 254 255 256 256 256 256 255 254 256 259 259 257 256 255
249 250 253 255 256 257 259 260 262 263 264 265 265 264 263 262 260 259 259 259 259 259 260 260 260 260 261 261 261 261 261 261 261 261 261 261 261 261 262 262 262 262 263 263 264 265 265 266 266 266 266 266 267 267 267 267 268 268 268 268 268 267 267 267 266 266 265 263 262 260 259 258 257 256 255 256 256 255 254 253 254 257 258 257 257 256 255
250 251 254 255 256 257 259 261 262 263 264 264 264 264 263 262 261 261 260 260 260 260 260 260 261 261 262 262 263 263 263 263 263 263 263 264 264 264 265 265 265 265 265 266 266 267 268 268 268 267 267 266 266 266 266 266 266 266 266 266 266 266 265 265 264 264 263 263 262 261 259 259 258 257 256 256 257 256 256 256 257 258 256 253 253 254 254
253 254 255 256 257 257 258 259 261 261 262 263 263 263 263 263 263 262 262 262 261 261 261 261 261 261 261 262 262 262 263 263 264 264 265 265 266 267 267 268 268 269 269 270 270 271 271 272 272 272 271 270 269 269 269 268 268 267 267 266 266 265 264 264 264 263 262 262 262 261 260 259 258 257 257 257 257 258 258 257 257 257 256 254 253 254 257
255 256 257 258 258 259 260 260 260 261 261 261 261 261 261 262 262 262 262 262 262 261 261 261 261 261 261 261 262 262 262 263 263 264 264 266 267 269 270 272 273 273 273 273 273 274 275 275 275 275 274 274 273 272 272 272 271 270 269 268 267 267 265 264 263 262 262 261 261 261 260 258 257 257 256 256 257 257 256 255 253 253 252 252 253 257 260
255 256 257 258 258 259 260 261 261 262 262 262 262 262 262 262 262 262 262 262 263 263 263 264 264 265 265 266 266 266 267 268 269 270 270 271 273 274 275 276 277 278 278 278 279 279 279 279 278 277 276 275 273 272 272 271 271 271 270 270 269 268 268 267 265 263 261 260 259 258 258 257 256 255 255 254 253 250 248 247 249 252 254 256 259 259 258
255 256 257 257 258 258 259 259 260 260 259 260 261 262 262 263 263 263 264 264 265 266 266 266 267 267 267 267 268 268 269 270 271 271 272 273 273 274 275 277 279 281 282 282 282 282 281 280 278 277 276 275 274 273 272 271 270 270 269 269 268 268 267 267 266 265 264 262 259 258 256 255 254 253 253 252 251 249 247 247 248 249 252 256 258 257 253
256 256 257 258 258 258 258 258 258 257 256 256 256 256 257 257 257 256 257 257 258 258 258 258 259 259 259 259 260 261 262 263 265 266 268 270 271 272 274 277 279 281 281 281 281 280 279 279 278 277 276 276 275 274 273 272 271 271 270 269 269 268 267 266 266 265 264 263 261 259 257 255 253 251 251 250 250 249 249 249 249 247 246 246 247 247 248
257 257 258 258 258 259 259 259 259 259 258 258 257 256 255 255 254 254 254 254 254 254 254 255 256 257 258 259 260 261 263 265 267 269 270 272 272 273 275 276 277 278 278 278 279 279 278 278 277 277 276 276 275 274 274 273 272 271 271 270 269 268 266 265 264 264 263 262 261 260 259 257 254 252 249 248 248 248 248 247 247 246 245 243 241 242 246
260 260 261 261 262 263 263 263 263 262 262 262 261 260 259 258 258 258 258 258 259 259 260 261 262 263 264 264 265 266 268 269 270 270 271 271 272 273 274 275 276 277 277 278 279 279 279 279 278 278 277 276 276 275 275 275 274 273 271 270 268 267 265 263 262 261 260 259 259 258 258 257 256 253 251 248 246 246 246 245 244 245 245 244 240 240 243
265 266 266 266 266 266 265 265 264 264 264 264 264 264 263 263 263 262 262 263 263 264 265 265 266 266 267 268 268 269 270 270 270 271 271 272 273 275 275 276 278 279 281 281 281 281 281 282 282 282 282 282 281 280 280 279 277 275 274 271 269 268 266 265 262 260 258 257 256 255 255 255 255 254 252 250 248 246 245 246 246 246 245 244 243 242 243
267 266 264 263 263 262 263 263 264 265 266 266 266 266 266 267 267 267 267 268 268 269 270 270 270 271 271 272 272 272 273 273 273 274 276 277 278 279 280 281 282 283 284 283 283 283 285 286 288 288 288 287 286 285 284 282 281 279 277 274 271 269 267 265 263 261 259 257 255 253 252 251 251 251 250 249 248 247 244 244 246 247 247 246 246 246 246
269 266 265 264 263 264 265 265 266 267 267 267 267 268 269 270 271 271 272 273 274 274 275 275 275 275 276 276 276 276 276 277 278 280 281 282 282 283 284 285 285 284 283 282 284 286 288 289 290 290 289 289 289 288 287 286 286 284 282 280 278 274 269 265 263 261 260 258 255 253 251 249 248 248 248 247 246 244 240 236 235 238 242 243 244 244 245
273 271 270 269 269 268 269 269 269 269 269 270 270 271 273 274 276 277 278 279 279 279 279 280 280 280 280 280 280 279 279 281 282 283 283 284 284 284 285 285 284 282 282 285 289 291 292 292 294 296 297 297 296 295 295 294 293 290 286 284 282 281 277 270 264 260 259 258 256 253 251 249 247 246 245 244 243 241 238 234 230 230 232 234 236 237 240
277 276 274 274 273 273 273 273 273 273 273 274 276 278 280 282 283 283 283 283 284 284 284 283 283 283 282 280 279 279 281 282 283 284 283 283 283 283 284 285 285 285 287 291 294 298 301 305 307 308 307 305 303 304 306 306 304 300 295 289 285 282 280 277 270 262 257 255 254 252 250 248 247 245 243 242 240 238 236 234 232 231 232 234 235 235 237
281 279 278 278 278 278 278 278 278 278 278 280 282 284 285 286 287 286 286 286 286 285 284 283 282 280 278 275 275 278 280 280 281 283 285 285 287 289 291 294 293 292 294 298 304 311 316 317 315 312 309 308 311 317 321 322 320 317 312 305 297 286 278 276 274 268 258 252 250 250 248 246 244 243 242 240 239 237 235 233 232 233 233 234 235 234 232
283 282 281 280 280 280 280 280 279 280 281 283 285 288 289 289 289 289 289 289 288 286 284 282 278 273 270 269 271 274 273 270 281 300 305 304 304 306 308 309 308 307 310 315 319 321 320 317 315 313 311 313 323 329 327 326 326 325 322 317 308 296 281 272 270 269 262 251 246 245 246 244 241 241 240 238 236 236 234 232 231 231 230 230 231 230 227
282 281 281 280 279 278 278 279 280 281 284 287 289 291 292 292 292 292 291 290 289 287 283 279 273 265 260 259 258 255 251 261 295 318 321 317 313 311 311 312 313 316 320 321 318 316 317 319 320 319 312 310 320 326 326 327 328 327 325 322 317 305 287 270 264 264 261 250 241 239 241 239 236 236 236 233 231 231 231 230 229 229 228 228 227 227 226
282 281 279 277 278 278 280 281 282 284 287 290 292 293 294 294 294 293 291 290 289 285 278 274 267 254 242 231 225 228 243 271 302 319 323 320 314 311 311 313 315 317 318 314 310 312 321 331 333 327 316 312 320 326 328 330 332 333 334 335 331 319 296 271 260 260 257 246 236 232 231 232 231 229 228 226 224 223 224 225 225 225 226 226 226 227 229
282 280 278 277 277 279 280 281 282 284 288 291 292 294 294 294 293 290 288 287 285 278 274 270 258 240 224 216 219 232 250 277 303 317 324 325 323 321 322 321 319 317 312 308 308 314 330 343 343 337 328 321 321 325 329 332 335 339 345 350 349 336 308 276 264 262 256 243 231 225 223 223 222 223 225 224 223 222 221 221 222 223 224 225 227 229 231
282 280 278 277 277 278 278 279 281 284 287 290 292 294 294 291 287 283 281 282 278 273 272 267 250 233 222 218 222 232 248 279 305 321 335 343 343 341 337 331 324 318 311 305 307 316 334 351 353 348 341 333 326 329 334 336 338 342 351 359 2 355 329 290 275 269 258 242 226 219 219 218 218 220 224 224 223 223 223 223 222 222 221 222 223 221 219
282 281 279 278 277 277 277 278 280 283 287 289 292 292 289 284 277 273 273 276 275 270 265 258 247 238 231 226 222 226 244 276 302 322 359 11 3 0 359 353 348 345 335 321 317 324 337 351 356 354 352 350 346 344 342 339 340 346 356 5 10 11 3 333 292 269 254 241 225 216 214 216 218 220 221 222 222 223 223 223 222 219 216 214 208 201 198
283 281 280 279 278 276 276 277 279 282 286 289 290 289 281 272 265 262 265 272 273 267 259 252 247 244 239 228 219 225 244 273 302 316 359 17 11 12 11 6 3 2 360 354 349 345 345 346 347 348 354 1 2 358 352 345 345 354 4 11 17 22 23 20 7 299 236 224 215 210 209 212 214 215 217 220 221 220 220 218 211 203 198 196 192 187 187
284 281 280 279 278 276 274 275 277 281 285 287 287 282 270 260 255 253 258 266 268 262 255 251 250 253 248 229 216 223 240 262 290 290 284 308 342 3 9 6 2 2 5 8 6 360 353 348 341 338 349 5 7 1 356 354 356 4 12 18 23 27 31 35 37 42 78 170 186 193 199 207 210 212 216 218 217 217 217 207 191 181 177 176 181 184 187
285 282 281 280 277 274 272 273 276 280 283 284 283 275 261 252 248 247 254 263 265 260 254 249 249 258 256 236 221 224 238 251 273 288 285 285 294 315 344 356 358 360 5 9 10 6 0 354 347 342 348 2 7 6 4 4 7 11 17 23 28 31 34 38 42 47 58 81 131 169 184 195 201 206 212 214 212 210 203 188 178 173 171 173 186 194 195
287 283 281 279 276 272 271 272 276 279 281 281 277 267 255 248 244 244 250 260 267 265 257 250 248 254 250 234 224 227 238 247 260 280 286 285 287 293 305 326 344 354 359 2 6 9 7 3 357 355 357 2 8 11 13 14 18 21 22 26 31 36 38 39 41 46 54 63 76 99 132 162 176 179 183 185 183 179 175 172 171 171 172 178 190 198 199
289 284 281 278 275 271 270 271 274 277 277 276 271 261 251 245 243 243 247 255 264 268 263 254 249 247 240 229 224 229 239 247 256 267 274 279 284 289 297 310 325 337 345 351 356 3 9 11 10 9 9 11 13 15 17 21 26 30 30 30 33 37 41 44 44 44 49 57 67 79 94 111 127 136 142 147 149 151 156 164 172 180 185 189 195 197 198
290 285 280 277 275 272 270 270 272 274 273 270 266 258 249 244 243 243 244 249 256 262 261 253 246 243 240 235 232 235 242 249 256 263 269 271 273 280 293 305 312 319 330 341 347 350 356 5 13 18 21 23 24 24 24 26 29 30 32 35 37 38 41 46 48 49 51 55 62 73 88 104 118 125 130 136 141 146 153 160 167 173 182 188 191 191 194
289 284 279 276 275 273 271 269 269 269 268 265 260 255 248 243 242 242 242 243 247 252 253 249 244 243 243 242 242 243 246 252 258 266 269 269 269 274 285 294 300 307 318 330 339 344 344 348 360 13 21 25 28 30 31 33 34 34 35 37 39 40 42 45 47 51 55 58 61 67 78 94 109 122 131 137 141 145 150 152 150 149 153 162 170 175 180
286 282 277 275 274 273 271 268 266 265 263 260 255 251 247 243 242 242 239 237 237 240 241 240 240 242 245 247 247 249 251 255 260 267 270 269 268 272 278 283 289 299 308 315 325 337 340 340 347 360 11 16 20 26 31 34 37 38 40 41 42 42 43 44 47 50 55 61 64 67 73 81 92 106 120 130 135 138 142 146 148 148 151 157 164 169 175
284 281 277 275 274 273 270 267 265 263 260 255 250 248 245 242 242 241 238 233 230 230 231 232 235 241 246 248 246 245 246 249 253 259 263 265 265 267 272 276 282 288 296 302 311 323 332 337 342 352 1 7 9 15 24 31 36 39 42 45 47 47 46 46 46 47 49 54 59 64 68 75 85 95 104 113 121 127 129 132 139 149 160 170 180 190 198
284 281 278 275 273 271 269 266 263 261 257 250 245 242 241 239 240 241 239 235 229 225 226 229 231 238 248 252 247 240 236 237 240 244 247 251 256 260 264 269 273 275 280 289 302 314 323 330 335 341 349 357 2 6 13 21 29 36 41 44 47 50 52 53 53 53 52 52 54 57 58 64 75 89 100 106 110 114 116 125 145 165 183 196 204 210 213
285 284 282 278 274 271 269 264 260 256 252 247 242 239 237 236 237 238 239 237 232 226 225 227 229 233 241 249 250 245 239 234 232 232 235 240 245 250 256 262 266 268 270 277 287 299 310 318 324 330 337 345 352 358 2 6 12 21 31 37 42 46 50 53 56 58 59 61 63 67 69 70 73 83 98 121 143 162 188 208 214 219 221 219 213 210 209
284 285 284 280 276 273 270 265 259 254 250 246 243 239 236 235 234 235 237 237 234 230 227 226 228 232 237 241 244 244 242 239 235 230 229 233 236 238 244 253 261 263 266 271 278 285 293 301 307 314 322 332 340 347 352 356 360 4 10 18 27 35 41 46 51 53 56 58 62 66 71 77 84 91 103 143 191 209 217 220 221 224 226 223 216 211 209
285 285 283 279 275 272 269 265 260 255 250 247 244 240 236 233 233 233 234 234 234 233 231 228 227 231 235 238 238 237 237 238 238 234 231 232 234 234 236 243 251 256 260 266 271 275 281 287 293 300 307 315 324 332 338 343 347 352 355 358 2 10 19 28 34 40 45 49 52 56 61 66 72 78 85 95 118 165 199 211 215 219 222 223 220 217 214
286 286 284 279 272 267 264 263 261 256 252 249 246 242 237 233 232 232 233 233 233 233 232 231 231 231 234 237 238 236 235 235 236 234 233 233 233 232 233 239 245 250 254 259 264 268 273 278 282 287 293 299 305 313 321 327 331 335 339 342 345 349 353 358 3 10 17 25 31 38 45 50 55 60 65 70 75 83 99 140 183 202 209 213 214 213 211
284 285 284 280 273 266 262 261 260 257 254 251 248 244 239 234 231 231 232 233 233 232 232 232 233 233 234 236 238 239 238 236 234 234 235 236 236 236 238 244 247 249 252 255 259 263 269 275 280 284 288 292 296 300 304 310 316 321 324 327 331 334 336 338 339 342 345 349 353 358 4 10 17 23 30 39 52 63 74 93 132 168 190 199 205 208 209
280 281 282 281 277 271 264 261 259 258 256 253 250 246 241 234 231 230 231 232 233 233 233 232 233 235 236 237 239 240 242 241 239 237 238 240 242 245 248 251 251 251 252 256 259 263 268 272 278 284 289 293 297 300 301 303 306 310 314 317 320 322 325 326 327 327 327 326 325 325 325 324 324 325 326 325 321 312 292 253 218 209 208 208 209 211 214
279 279 279 278 277 273 268 262 259 257 256 254 251 247 241 235 232 231 231 231 232 233 233 233 233 234 236 237 239 241 242 244 244 244 243 245 247 250 252 254 255 255 256 258 261 264 268 271 275 281 287 292 296 299 302 305 306 307 309 312 314 315 317 318 319 319 319 318 315 312 309 305 301 298 295 290 286 281 275 267 258 249 241 235 230 227 226
Height
5660 5663 5664 5666 5666 5667 5669 5670 5671 5673 5674 5676 5677 5679 5680 5682 5683 5685 5686 5688 5689 5691 5692 5693 5695 5696 5697 5698 5699 5700 5701 5702 5703 5704 5704 5705 5705 5706 5706 5707 5708 5708 5709 5709 5710 5710 5710 5711 5712 5712 5713 5714 5715 5716 5716 5717 5718 5719 5719 5719 5720 5720 5721 5721 5722 5723 5723 5724 5724 5724 5725 5725 5725 5726 5726 5727 5727 5727 5727 5726 5726 5726 5726 5726 5726 5725 5725
5657 5658 5660 5660 5661 5663 5664 5666 5668 5669 5671 5672 5674 5675 5676 5678 5679 5680 5682 5684 5685 5687 5688 5690 5691 5692 5693 5694 5695 5696 5697 5698 5699 5700 5701 5701 5702 5702 5703 5703 5704 5704 5705 5705 5705 5706 5706 5707 5707 5708 5709 5710 5711 5711 5712 5713 5714 5714 5715 5715 5716 5716 5717 5717 5718 5718 5719 5719 5720 5720 5720 5720 5720 5721 5721 5722 5722 5722 5722 5722 5722 5722 5723 5723 5723 5722 5722
5654 5655 5656 5657 5657 5659 5661 5662 5664 5665 5666 5667 5669 5670 5672 5673 5675 5676 5678 5679 5681 5682 5684 5686 5687 5688 5689 5690 5691 5692 5693 5694 5695 5696 5697 5697 5698 5698 5699 5700 5700 5700 5701 5701 5701 5702 5702 5702 5702 5703 5703 5704 5705 5706 5707 5708 5709 5709 5710 5711 5711 5712 5712 5713 5713 5713 5714 5714 5714 5714 5715 5715 5715 5715 5716 5716 5717 5717 5717 5717 5717 5718 5718 5719 5719 5719 5719
5650 5651 5652 5653 5654 5655 5657 5658 5660 5661 5662 5663 5664 5666 5667 5668 5670 5672 5673 5675 5676 5678 5679 5681 5683 5684 5685 5686 5687 5687 5688 5689 5690 5691 5692 5693 5693 5694 5695 5695 5696 5696 5697 5697 5697 5697 5697 5698 5698 5698 5699 5699 5700 5701 5702 5702 5703 5703 5704 5705 5706 5706 5706 5707 5707 5708 5708 5708 5708 5708 5709 5709 5709 5710 5710 5710 5711 5711 5712 5712 5712 5713 5713 5713 5714 5714 5714
5646 5647 5648 5649 5650 5651 5653 5655 5656 5657 5658 5659 5660 5661 5663 5664 5666 5668 5669 5670 5672 5673 5674 5676 5677 5678 5680 5681 5682 5683 5684 5684 5685 5686 5686 5687 5688 5689 5690 5690 5690 5691 5692 5692 5693 5693 5693 5693 5693 5693 5693 5693 5694 5695 5696 5696 5697 5697 5697 5698 5699 5699 5700 5700 5701 5701 5702 5702 5702 5702 5702 5703 5703 5704 5704 5704 5705 5705 5706 5706 5707 5707 5707 5708 5708 5709 5709
5642 5643 5644 5645 5646 5648 5650 5651 5652 5653 5654 5655 5656 5657 5658 5660 5662 5663 5664 5666 5667 5668 5669 5670 5671 5672 5674 5675 5676 5678 5679 5680 5681 5681 5682 5683 5684 5684 5685 5685 5685 5686 5686 5687 5687 5687 5687 5687 5687 5687 5687 5687 5688 5688 5689 5690 5690 5690 5691 5691 5692 5692 5693 5693 5694 5694 5695 5695 5695 5695 5696 5696 5697 5697 5698 5698 5698 5699 5700 5701 5701 5701 5702 5702 5702 5703 5704
5637 5639 5640 5641 5642 5644 5646 5647 5648 5650 5651 5651 5652 5653 5654 5655 5657 5658 5660 5661 5662 5663 5664 5665 5665 5666 5668 5669 5671 5672 5674 5675 5676 5676 5677 5678 5678 5678 5679 5679 5679 5680 5680 5681 5681 5681 5681 5680 5680 5680 5680 5681 5681 5681 5682 5683 5684 5684 5685 5685 5685 5686 5686 5686 5687 5687 5688 5688 5688 5688 5689 5689 5690 5690 5691 5691 5691 5692 5693 5694 5695 5695 5695 5696 5697 5697 5698
5632 5633 5635 5637 5639 5641 5642 5643 5644 5645 5646 5647 5648 5649 5650 5651 5652 5654 5655 5656 5658 5659 5659 5660 5661 5661 5663 5664 5665 5667 5667 5668 5669 5670 5670 5671 5671 5672 5672 5672 5672 5673 5673 5674 5674 5674 5674 5673 5673 5673 5674 5674 5674 5675 5675 5676 5677 5678 5678 5678 5679 5679 5679 5680 5680 5680 5681 5681 5681 5681 5681 5682 5682 5683 5684 5684 5684 5685 5686 5687 5688 5689 5689 5690 5691 5692 5692
5627 5628 5630 5632 5634 5635 5637 5638 5640 5641 5642 5642 5643 5644 5645 5646 5647 5648 5650 5651 5652 5653 5654 5655 5656 5656 5658 5658 5659 5660 5660 5661 5662 5662 5663 5663 5664 5664 5665 5665 5665 5665 5666 5666 5666 5666 5666 5666 5666 5666 5666 5667 5667 5667 5668 5669 5670 5671 5672 5672 5672 5672 5673 5673 5673 5674 5674 5674 5674 5674 5674 5674 5675 5675 5676 5676 5677 5677 5678 5680 5681 5682 5683 5684 5685 5686 5686
5623 5624 5625 5627 5628 5630 5633 5634 5635 5636 5637 5637 5638 5639 5639 5640 5641 5642 5644 5645 5646 5647 5648 5649 5650 5651 5652 5652 5653 5654 5654 5655 5655 5655 5656 5656 5656 5657 5657 5657 5658 5658 5658 5658 5658 5658 5658 5658 5658 5658 5658 5659 5659 5660 5661 5661 5662 5663 5664 5665 5665 5666 5666 5666 5666 5666 5667 5667 5667 5667 5667 5667 5668 5668 5668 5669 5670 5670 5672 5673 5674 5675 5676 5677 5678 5679 5680
5620 5620 5620 5622 5623 5625 5627 5629 5630 5631 5632 5633 5633 5634 5635 5636 5637 5637 5638 5639 5640 5641 5642 5643 5644 5645 5645 5646 5647 5648 5648 5648 5649 5649 5649 5649 5650 5650 5650 5650 5650 5651 5651 5651 5651 5651 5650 5650 5650 5651 5651 5651 5651 5652 5653 5653 5654 5655 5655 5656 5657 5658 5658 5658 5659 5659 5659 5659 5660 5660 5660 5661 5661 5662 5662 5663 5663 5664 5665 5666 5667 5668 5669 5670 5671 5672 5674
5615 5615 5616 5617 5618 5620 5621 5623 5624 5625 5626 5627 5628 5629 5631 5633 5633 5632 5633 5633 5634 5635 5636 5636 5637 5638 5639 5640 5640 5641 5641 5642 5642 5642 5643 5643 5643 5643 5643 5644 5644 5644 5644 5644 5643 5643 5643 5642 5642 5643 5643 5643 5643 5643 5644 5644 5644 5645 5646 5647 5648 5649 5650 5650 5651 5651 5651 5651 5652 5653 5653 5654 5655 5656 5656 5657 5657 5658 5659 5660 5661 5662 5663 5664 5665 5666 5667
5610 5611 5611 5612 5614 5614 5616 5617 5618 5619 5620 5621 5622 5624 5626 5627 5626 5627 5628 5628 5628 5629 5630 5631 5631 5631 5632 5633 5634 5634 5634 5635 5635 5635 5636 5636 5636 5637 5637 5637 5637 5637 5637 5636 5636 5635 5635 5634 5634 5634 5634 5635 5634 5634 5635 5635 5634 5635 5637 5638 5638 5639 5641 5641 5642 5643 5643 5643 5644 5644 5645 5647 5648 5649 5650 5650 5651 5652 5652 5653 5654 5655 5656 5657 5659 5660 5661
5605 5606 5606 5607 5608 5610 5611 5612 5613 5614 5614 5615 5617 5619 5620 5620 5620 5621 5621 5622 5623 5623 5624 5624 5624 5625 5626 5626 5627 5627 5627 5627 5627 5628 5628 5628 5629 5629 5629 5630 5630 5630 5629 5629 5628 5627 5626 5626 5626 5626 5626 5626 5626 5626 5626 5626 5625 5626 5627 5628 5629 5630 5631 5631 5632 5633 5634 5635 5635 5636 5637 5638 5640 5642 5643 5644 5645 5645 5646 5646 5647 5648 5649 5651 5653 5654 5655
5599 5600 5601 5602 5603 5605 5606 5607 5607 5607 5608 5609 5611 5612 5612 5613 5614 5615 5615 5616 5616 5617 5617 5617 5618 5618 5619 5619 5619 5620 5620 5619 5619 5619 5620 5620 5620 5620 5621 5621 5621 5621 5621 5620 5619 5619 5618 5617 5617 5616 5616 5617 5617 5617 5618 5617 5616 5616 5617 5618 5619 5620 5621 5622 5623 5623 5624 5625 5626 5628 5628 5629 5631 5633 5635 5636 5637 5638 5639 5640 5640 5642 5643 5645 5646 5647 5648
5593 5594 5594 5596 5598 5599 5600 5600 5601 5601 5602 5603 5604 5605 5605 5606 5607 5608 5609 5609 5610 5610 5610 5611 5611 5611 5612 5612 5612 5612 5612 5612 5611 5611 5611 5611 5611 5612 5612 5612 5612 5612 5612 5611 5611 5610 5609 5608 5607 5606 5606 5606 5607 5608 5608 5607 5606 5607 5608 5608 5609 5611 5612 5612 5613 5614 5615 5616 5617 5618 5619 5620 5622 5623 5625 5627 5628 5630 5631 5632 5633 5635 5636 5638 5639 5640 5640
5587 5587 5588 5590 5592 5593 5593 5594 5595 5595 5596 5597 5598 5598 5599 5599 5600 5601 5602 5602 5603 5603 5603 5603 5604 5604 5604 5604 5604 5604 5604 5604 5603 5603 5603 5603 5604 5604 5604 5603 5603 5603 5602 5602 5601 5600 5599 5598 5597 5596 5596 5596 5597 5597 5597 5597 5597 5597 5598 5598 5599 5601 5602 5603 5604 5605 5606 5607 5608 5609 5610 5611 5613 5614 5616 5618 5620 5622 5624 5625 5626 5627 5629 5630 5632 5633 5633
5581 5581 5582 5584 5585 5586 5587 5588 5588 5589 5590 5591 5591 5592 5593 5593 5594 5594 5595 5595 5596 5596 5596 5597 5597 5597 5597 5597 5597 5597 5597 5596 5596 5596 5596 5596 5596 5596 5596 5595 5594 5594 5593 5593 5592 5592 5591 5589 5588 5587 5586 5586 5586 5587 5587 5586 5586 5586 5587 5588 5589 5590 5591 5592 5593 5595 5596 5598 5599 5600 5601 5602 5603 5605 5607 5609 5612 5616 5619 5620 5619 5619 5621 5623 5625 5626 5626
5575 5576 5577 5578 5579 5580 5581 5582 5582 5583 5584 5584 5585 5586 5586 5587 5588 5588 5588 5589 5589 5589 5590 5590 5590 5590 5590 5590 5590 5590 5589 5589 5589 5589 5589 5589 5589 5588 5587 5586 5585 5585 5584 5584 5583 5583 5582 5580 5579 5577 5576 5576 5576 5576 5576 5575 5575 5575 5575 5576 5578 5579 5579 5580 5581 5583 5585 5588 5589 5590 5591 5592 5594 5596 5598 5601 5604 5608 5611 5612 5611 5612 5614 5616 5618 5619 5619
5571 5571 5572 5573 5574 5575 5576 5577 5577 5578 5578 5579 5579 5580 5581 5581 5582 5582 5583 5583 5583 5584 5584 5584 5584 5584 5584 5584 5584 5583 5582 5582 5582 5582 5582 5581 5581 5579 5578 5577 5576 5576 5575 5575 5574 5573 5572 5571 5569 5568 5566 5565 5564 5564 5564 5564 5564 5564 5564 5565 5566 5567 5568 5568 5569 5571 5572 5575 5577 5579 5581 5582 5584 5586 5588 5590 5594 5597 5599 5602 5604 5606 5608 5609 5610 5611 5610
5566 5567 5568 5569 5569 5570 5571 5572 5572 5573 5574 5574 5575 5576 5576 5577 5577 5577 5578 5578 5578 5579 5579 5579 5579 5579 5578 5578 5579 5578 5577 5577 5577 5576 5576 5575 5573 5571 5570 5569 5568 5567 5566 5566 5565 5564 5562 5561 5560 5559 5557 5555 5554 5553 5553 5553 5552 5553 5553 5553 5554 5556 5556 5557 5558 5559 5559 5561 5563 5566 5568 5571 5574 5576 5578 5580 5583 5586 5589 5592 5594 5597 5600 5601 5603 5602 5601
5563 5563 5564 5565 5565 5565 5566 5567 5568 5568 5569 5570 5570 5571 5572 5572 5572 5573 5573 5573 5574 5574 5574 5573 5574 5573 5573 5573 5573 5572 5571 5571 5570 5570 5569 5567 5565 5564 5563 5562 5561 5559 5558 5557 5556 5555 5553 5552 5551 5549 5548 5546 5544 5543 5542 5542 5541 5542 5542 5542 5543 5544 5544 5545 5546 5546 5547 5549 5550 5552 5555 5558 5562 5565 5568 5570 5572 5575 5579 5582 5584 5586 5589 5593 5594 5594 5594
5560 5560 5561 5561 5562 5562 5563 5563 5564 5564 5564 5565 5565 5566 5566 5567 5567 5567 5567 5567 5567 5567 5567 5567 5567 5567 5566 5566 5566 5566 5564 5563 5563 5562 5561 5560 5559 5557 5556 5555 5554 5552 5551 5550 5548 5546 5544 5543 5541 5540 5539 5537 5535 5534 5533 5532 5531 5530 5530 5530 5531 5531 5531 5532 5534 5534 5534 5536 5538 5540 5542 5545 5548 5552 5556 5559 5563 5566 5569 5571 5573 5576 5580 5583 5585 5586 5586
5558 5558 5558 5559 5559 5559 5559 5559 5560 5560 5560 5560 5560 5561 5561 5561 5561 5561 5561 5561 5561 5561 5560 5560 5560 5560 5559 5559 5559 5558 5557 5556 5555 5554 5553 5552 5552 5550 5549 5548 5547 5545 5543 5541 5540 5538 5536 5534 5533 5532 5531 5529 5527 5526 5525 5523 5522 5520 5519 5519 5519 5519 5518 5519 5520 5521 5522 5523 5525 5527 5530 5532 5535 5539 5543 5548 5552 5557 5561 5563 5565 5567 5570 5572 5575 5577 5579
5556 5556 5556 5556 5556 5556 5556 5556 5556 5556 5556 5556 5556 5556 5556 5556 5556 5556 5556 5555 5555 5555 5554 5554 5553 5553 5552 5552 5552 5551 5549 5548 5547 5547 5546 5545 5544 5542 5541 5540 5539 5537 5535 5534 5532 5531 5529 5528 5527 5526 5524 5522 5520 5519 5517 5515 5514 5512 5510 5509 5508 5508 5507 5507 5507 5508 5509 5511 5512 5514 5517 5520 5523 5526 5531 5536 5541 5547 5553 5557 5558 5559 5562 5564 5567 5570 5572
5552 5552 5552 5552 5552 5553 5553 5553 5553 5553 5553 5552 5552 5552 5551 5551 5551 5551 5550 5550 5550 5549 5548 5547 5547 5547 5546 5545 5545 5544 5542 5541 5540 5540 5539 5538 5537 5536 5535 5534 5532 5531 5529 5528 5527 5526 5525 5524 5522 5521 5519 5517 5515 5513 5511 5509 5507 5506 5504 5502 5500 5499 5498 5497 5497 5497 5498 5500 5501 5502 5504 5508 5511 5515 5519 5524 5530 5536 5542 5547 5549 5552 5555 5557 5560 5563 5565
5549 5549 5549 5549 5549 5549 5549 5549 5549 5549 5548 5548 5548 5547 5547 5547 5546 5546 5545 5545 5544 5543 5543 5542 5541 5541 5540 5539 5538 5537 5536 5535 5535 5534 5533 5532 5531 5530 5529 5528 5527 5526 5525 5524 5523 5522 5521 5520 5518 5516 5514 5512 5510 5508 5506 5504 5502 5499 5497 5495 5494 5492 5491 5489 5488 5488 5489 5491 5492 5493 5494 5497 5501 5504 5508 5513 5518 5524 5530 5535 5538 5541 5545 5549 5552 5556 5559
5546 5546 5546 5545 5545 5546 5546 5545 5545 5545 5544 5544 5544 5543 5543 5542 5542 5541 5540 5539 5539 5538 5537 5536 5535 5535 5534 5533 5532 5532 5531 5531 5530 5529 5529 5528 5527 5527 5526 5525 5524 5523 5522 5521 5520 5519 5517 5516 5514 5512 5510 5508 5506 5504 5502 5499 5497 5494 5492 5490 5488 5486 5484 5482 5481 5480 5481 5482 5484 5485 5487 5489 5492 5495 5499 5503 5508 5513 5519 5524 5527 5531 5536 5540 5544 5549 5553
5543 5543 5542 5542 5542 5542 5542 5542 5541 5541 5540 5540 5540 5539 5539 5538 5537 5536 5536 5535 5534 5533 5533 5532 5531 5530 5530 5529 5528 5528 5528 5528 5527 5527 5526 5525 5525 5524 5523 5522 5521 5520 5520 5518 5517 5516 5514 5513 5511 5509 5507 5505 5503 5501 5499 5497 5494 5491 5488 5485 5483 5480 5478 5476 5475 5474 5473 5475 5477 5479 5480 5483 5485 5488 5491 5495 5499 5504 5509 5514 5518 5523 5527 5531 5536 5541 5546
5540 5539 5539 5539 5539 5539 5538 5538 5537 5537 5536 5536 5536 5536 5535 5534 5533 5532 5531 5530 5529 5529 5528 5528 5527 5527 5526 5526 5526 5526 5526 5526 5526 5525 5524 5523 5523 5522 5521 5520 5519 5518 5517 5516 5514 5513 5512 5510 5508 5506 5504 5503 5501 5499 5497 5494 5491 5488 5485 5481 5478 5475 5472 5470 5469 5468 5467 5468 5470 5473 5475 5477 5480 5483 5486 5489 5493 5497 5501 5505 5509 5514 5519 5523 5527 5531 5536
5537 5537 5536 5536 5536 5535 5535 5535 5534 5533 5533 5533 5532 5532 5531 5530 5529 5528 5527 5526 5525 5525 5524 5524 5524 5524 5524 5524 5524 5524 5524 5524 5524 5523 5523 5522 5521 5520 5520 5519 5517 5516 5515 5513 5512 5512 5511 5509 5506 5504 5502 5501 5499 5497 5494 5492 5489 5485 5481 5477 5473 5469 5466 5464 5463 5463 5462 5463 5465 5467 5470 5473 5475 5478 5481 5485 5488 5491 5494 5498 5502 5506 5510 5515 5519 5522 5526
5534 5534 5533 5533 5532 5532 5532 5531 5531 5530 5530 5529 5529 5528 5527 5526 5525 5524 5523 5522 5522 5522 5522 5522 5522 5522 5522 5522 5523 5523 5523 5523 5523 5522 5521 5520 5519 5518 5518 5517 5516 5514 5513 5512 5511 5511 5509 5507 5504 5502 5501 5499 5497 5495 5493 5490 5487 5483 5479 5474 5468 5464 5460 5459 5458 5458 5458 5459 5460 5463 5466 5469 5472 5475 5478 5481 5484 5487 5490 5493 5496 5500 5503 5507 5511 5515 5520
5532 5531 5530 5530 5529 5529 5529 5528 5527 5527 5527 5526 5525 5525 5524 5523 5522 5521 5520 5520 5520 5520 5520 5520 5520 5520 5521 5521 5522 5522 5522 5522 5521 5521 5520 5519 5518 5517 5516 5515 5514 5513 5512 5511 5510 5509 5508 5505 5503 5501 5499 5497 5496 5494 5491 5489 5485 5481 5477 5471 5465 5460 5457 5456 5455 5455 5455 5456 5457 5460 5463 5466 5469 5472 5475 5478 5481 5483 5486 5489 5491 5494 5498 5502 5506 5511 5516
5529 5528 5527 5527 5526 5526 5526 5525 5524 5524 5524 5523 5522 5522 5521 5520 5519 5519 5518 5518 5518 5518 5518 5518 5518 5519 5519 5520 5520 5521 5521 5520 5520 5519 5518 5517 5517 5516 5515 5514 5513 5512 5511 5509 5508 5507 5506 5504 5502 5500 5498 5496 5495 5493 5490 5487 5484 5481 5476 5471 5465 5459 5455 5454 5453 5453 5453 5454 5455 5457 5460 5463 5466 5469 5472 5474 5477 5480 5483 5486 5488 5491 5495 5499 5503 5508 5513
5526 5525 5524 5524 5524 5523 5523 5522 5521 5521 5521 5520 5519 5519 5518 5517 5517 5517 5517 5517 5517 5517 5517 5517 5517 5517 5518 5519 5519 5519 5519 5519 5519 5518 5518 5517 5516 5516 5515 5514 5513 5511 5510 5508 5507 5506 5504 5503 5501 5499 5497 5495 5494 5491 5489 5487 5484 5480 5477 5472 5467 5460 5456 5453 5452 5452 5452 5453 5454 5456 5458 5461 5464 5466 5469 5471 5474 5477 5480 5483 5486 5489 5491 5494 5498 5502 5507
5523 5522 5521 5521 5521 5520 5520 5519 5519 5518 5518 5517 5517 5516 5516 5515 5515 5515 5515 5515 5515 5515 5515 5515 5516 5516 5517 5517 5518 5518 5518 5518 5518 5518 5517 5517 5516 5515 5514 5513 5512 5511 5509 5507 5506 5505 5503 5501 5500 5499 5497 5495 5493 5491 5489 5486 5484 5481 5477 5473 5469 5464 5458 5454 5452 5451 5451 5452 5453 5455 5457 5460 5462 5464 5467 5469 5472 5475 5477 5480 5483 5486 5488 5491 5494 5498 5502
5520 5519 5518 5518 5518 5517 5517 5516 5516 5516 5515 5515 5514 5514 5513 5513 5513 5514 5514 5514 5514 5514 5514 5514 5514 5515 5515 5516 5516 5517 5517 5517 5517 5517 5516 5516 5515 5515 5514 5513 5512 5511 5509 5507 5505 5504 5502 5501 5500 5499 5497 5494 5492 5491 5489 5486 5484 5481 5478 5475 5471 5467 5463 5459 5455 5453 5452 5452 5454 5455 5457 5459 5462 5464 5466 5468 5471 5473 5475 5478 5480 5483 5486 5490 5493 5497 5500
5517 5516 5516 5515 5515 5515 5514 5514 5513 5513 5512 5512 5512 5511 5511 5511 5512 5512 5512 5512 5512 5512 5513 5513 5513 5513 5514 5514 5515 5515 5516 5516 5516 5516 5516 5515 5515 5514 5514 5513 5512 5511 5509 5507 5505 5504 5502 5501 5499 5498 5496 5494 5492 5491 5489 5487 5484 5482 5479 5476 5474 5471 5468 5464 5460 5457 5455 5454 5455 5456 5458 5460 5462 5464 5466 5468 5469 5471 5474 5476 5480 5483 5486 5489 5493 5495 5497
5514 5513 5513 5512 5512 5512 5512 5511 5511 5510 5510 5510 5509 5509 5509 5510 5510 5510 5510 5511 5511 5511 5511 5511 5511 5512 5512 5513 5513 5514 5514 5515 5515 5515 5515 5514 5514 5513 5513 5512 5511 5510 5509 5508 5506 5505 5503 5502 5500 5498 5496 5494 5492 5491 5489 5487 5485 5483 5481 5478 5476 5473 5471 5468 5466 5463 5461 5459 5458 5458 5459 5460 5462 5464 5465 5467 5469 5471 5474 5477 5481 5483 5486 5489 5491 5493 5496
5511 5510 5510 5510 5509 5509 5509 5509 5508 5508 5508 5507 5507 5507 5507 5508 5508 5508 5509 5509 5509 5509 5509 5510 5510 5510 5511 5512 5512 5512 5513 5513 5513 5514 5514 5513 5513 5513 5512 5511 5511 5510 5509 5508 5507 5505 5504 5502 5501 5498 5496 5494 5493 5491 5489 5488 5486 5484 5482 5480 5478 5476 5474 5472 5470 5468 5466 5465 5463 5462 5462 5463 5464 5466 5468 5470 5472 5475 5477 5480 5482 5484 5486 5489 5491 5493 5495
5508 5507 5507 5507 5506 5506 5506 5506 5506 5506 5506 5505 5505 5505 5505 5506 5506 5506 5507 5507 5507 5508 5508 5508 5509 5509 5510 5510 5511 5511 5511 5512 5512 5512 5512 5512 5512 5511 5511 5510 5510 5509 5509 5508 5507 5505 5504 5503 5501 5500 5498 5496 5494 5492 5490 5488 5486 5485 5483 5482 5480 5478 5477 5475 5473 5472 5471 5470 5469 5468 5468 5468 5469 5470 5472 5474 5476 5478 5480 5482 5483 5485 5487 5489 5491 5493 5496
5505 5504 5504 5503 5503 5503 5503 5503 5503 5503 5503 5503 5503 5503 5503 5504 5504 5505 5505 5505 5506 5506 5506 5507 5507 5508 5508 5508 5509 5509 5510 5510 5510 5511 5511 5511 5511 5510 5510 5509 5509 5508 5508 5507 5506 5505 5504 5503 5502 5500 5499 5497 5495 5493 5491 5489 5488 5486 5485 5483 5482 5480 5479 5478 5476 5475 5474 5474 5473 5473 5473 5473 5474 5475 5476 5477 5479 5480 5481 5483 5485 5486 5488 5490 5492 5494 5496
5502 5501 5501 5500 5500 5500 5500 5501 5501 5501 5501 5501 5501 5501 5501 5502 5502 5503 5503 5503 5504 5504 5505 5505 5505 5506 5506 5507 5507 5507 5508 5508 5509 5509 5509 5509 5509 5509 5508 5508 5508 5507 5507 5506 5506 5505 5504 5503 5502 5501 5500 5498 5497 5495 5493 5491 5490 5488 5486 5485 5483 5482 5481 5480 5479 5478 5477 5477 5476 5476 5477 5477 5478 5478 5479 5480 5481 5482 5483 5485 5486 5488 5489 5491 5493 5495 5496
5499 5498 5498 5497 5497 5497 5497 5498 5498 5498 5499 5499 5499 5499 5499 5500 5500 5501 5501 5502 5502 5503 5503 5503 5504 5504 5505 5505 5505 5506 5506 5506 5507 5507 5507 5507 5507 5507 5507 5507 5506 5506 5505 5505 5505 5504 5504 5503 5502 5501 5500 5499 5498 5496 5495 5493 5492 5490 5489 5487 5486 5484 5483 5482 5481 5480 5479 5479 5479 5479 5479 5479 5480 5480 5481 5482 5483 5484 5485 5487 5488 5489 5490 5492 5493 5494 5496
5496 5495 5495 5495 5494 5494 5494 5495 5495 5496 5496 5496 5496 5497 5497 5498 5498 5499 5499 5500 5500 5501 5501 5502 5502 5503 5503 5504 5504 5504 5504 5505 5505 5505 5505 5505 5505 5506 5505 5505 5505 5505 5504 5504 5504 5503 5503 5502 5501 5501 5500 5499 5498 5497 5496 5495 5494 5492 5491 5490 5488 5487 5486 5484 5483 5482 5482 5481 5481 5481 5481 5481 5482 5482 5483 5483 5484 5485 5486 5487 5489 5490 5491 5492 5493 5494 5496
5492 5492 5492 5492 5491 5491 5492 5492 5492 5493 5493 5493 5494 5494 5495 5495 5496 5497 5497 5498 5498 5499 5499 5500 5501 5501 5502 5502 5503 5503 5503 5503 5503 5504 5504 5504 5504 5504 5504 5504 5504 5504 5503 5503 5503 5502 5502 5501 5501 5500 5499 5499 5498 5497 5496 5496 5495 5494 5493 5492 5491 5489 5488 5487 5486 5485 5484 5484 5483 5483 5483 5483 5483 5484 5484 5485 5485 5486 5487 5488 5489 5490 5491 5492 5493 5494 5495
5489 5489 5489 5489 5489 5489 5489 5489 5489 5490 5490 5490 5490 5491 5492 5493 5494 5494 5495 5496 5496 5497 5497 5498 5499 5500 5500 5501 5501 5502 5502 5502 5502 5502 5503 5503 5503 5503 5503 5503 5503 5503 5502 5502 5502 5501 5501 5501 5500 5500 5499 5498 5498 5497 5497 5496 5495 5495 5494 5493 5492 5491 5490 5490 5489 5488 5487 5486 5486 5485 5485 5485 5485 5485 5485 5486 5486 5487 5488 5489 5489 5490 5491 5492 5493 5494 5495
5486 5486 5486 5486 5486 5486 5486 5486 5486 5486 5486 5487 5487 5488 5489 5490 5491 5491 5492 5493 5494 5494 5495 5496 5497 5498 5498 5499 5500 5500 5501 5501 5501 5501 5501 5501 5502 5502 5502 5502 5502 5502 5502 5501 5501 5501 5500 5500 5500 5499 5499 5498 5498 5497 5496 5496 5495 5495 5494 5494 5493 5492 5492 5491 5491 5490 5489 5489 5488 5488 5487 5487 5487 5486 5487 5487 5487 5488 5488 5489 5489 5490 5491 5491 5492 5493 5494
5482 5482 5482 5482 5482 5482 5482 5482 5483 5483 5483 5483 5484 5485 5486 5487 5488 5489 5489 5490 5491 5492 5493 5494 5494 5495 5496 5497 5498 5498 5499 5499 5500 5500 5500 5500 5500 5500 5500 5501 5501 5501 5500 5500 5500 5500 5499 5499 5499 5499 5498 5498 5497 5497 5496 5496 5495 5495 5494 5494 5493 5493 5492 5492 5491 5491 5491 5490 5490 5489 5489 5489 5488 5488 5488 5488 5488 5488 5488 5489 5489 5490 5490 5491 5492 5492 5493
5479 5478 5478 5478 5479 5479 5479 5479 5479 5479 5479 5480 5480 5481 5482 5483 5484 5485 5486 5487 5488 5489 5490 5491 5492 5493 5494 5494 5495 5496 5497 5497 5498 5498 5498 5499 5499 5499 5499 5499 5499 5499 5499 5499 5499 5498 5498 5498 5498 5497 5497 5497 5496 5496 5496 5495 5495 5494 5494 5493 5493 5493 5492 5492 5491 5491 5491 5491 5490 5490 5490 5490 5490 5490 5489 5489 5489 5489 5489 5489 5490 5490 5491 5492 5492 5493 5494
5475 5475 5475 5474 5474 5475 5475 5476 5476 5476 5476 5476 5477 5478 5479 5480 5480 5481 5482 5484 5485 5486 5487 5488 5489 5490 5491 5491 5492 5493 5494 5495 5495 5496 5496 5496 5497 5497 5497 5497 5497 5497 5497 5497 5497 5497 5497 5497 5496 5496 5496 5496 5495 5495 5495 5494 5494 5494 5493 5493 5492 5492 5492 5491 5491 5491 5490 5490 5490 5490 5490 5490 5490 5490 5490 5490 5490 5490 5490 5490 5490 5491 5491 5492 5492 5493 5494
5472 5472 5471 5471 5471 5471 5471 5472 5472 5472 5472 5472 5473 5474 5475 5475 5476 5477 5478 5480 5481 5482 5483 5484 5485 5486 5487 5488 5489 5490 5491 5491 5492 5493 5493 5494 5494 5494 5495 5495 5495 5495 5495 5495 5495 5495 5495 5495 5495 5495 5494 5494 5494 5494 5493 5493 5493 5492 5492 5492 5491 5491 5491 5490 5490 5490 5489 5489 5489 5489 5489 5489 5489 5489 5489 5489 5490 5490 5490 5490 5490 5491 5491 5491 5492 5492 5493